Stations météo

Publicité
Roma Fiumicino, Italie (16242): Température de l'air & dewpoint: 12.09.2018 18:00:00 - 18.09.2018 18:00:00 (CEST)Roma Fiumicino, Italie (16242): Vitesse du vent: 12.09.2018 18:00:00 - 18.09.2018 18:00:00 (CEST)Roma Fiumicino, Italie (16242): Direction du vent: 12.09.2018 18:00:00 - 18.09.2018 18:00:00 (CEST)Roma Fiumicino, Italie (16242): reduced air pressure: 12.09.2018 18:00:00 - 18.09.2018 18:00:00 (CEST)Roma Fiumicino, Italie (16242): visibility: 12.09.2018 18:00:00 - 18.09.2018 18:00:00 (CEST)
Date & Time tt [°C] td [°C] ff [km/h] ff [knt] dd ppp [hPa] vv [km]
18.09.2018 18:00:00 26,0 21,0 11 6 SSW - 10
18.09.2018 17:00:00 27,3 19,6 15 8 SW 1018,5 10
18.09.2018 16:00:00 28,0 20,0 16 9 SSW - 10
18.09.2018 15:00:00 28,0 20,0 15 8 SSW - 10
18.09.2018 14:00:00 27,6 19,3 15 8 S 1019,5 10
18.09.2018 13:00:00 28,0 20,0 13 7 S - 10
18.09.2018 12:00:00 27,0 21,0 15 8 S - 10
18.09.2018 11:00:00 26,8 20,2 4 2 - 1020,4 10
18.09.2018 10:00:00 24,0 21,0 8 4 ESE - 10
18.09.2018 09:00:00 23,0 21,0 9 5 ENE - 10
18.09.2018 08:00:00 22,3 20,8 4 2 E 1020,0 8
18.09.2018 07:00:00 21,0 20,0 5 3 NE - 10
18.09.2018 06:00:00 20,0 19,0 4 2 N - 10
18.09.2018 05:00:00 20,6 19,2 4 2 NE 1019,3 15
18.09.2018 04:00:00 22,0 20,0 2 1 - - 10
18.09.2018 03:00:00 22,0 21,0 5 3 ENE - 10
18.09.2018 02:00:00 22,3 20,9 4 2 - 1019,5 10
18.09.2018 01:00:00 23,0 21,0 8 4 ENE - 10
18.09.2018 00:00:00 23,0 21,0 2 1 E - 10
17.09.2018 23:00:00 22,7 21,1 5 3 NE 1020,1 10
17.09.2018 22:00:00 24,0 21,0 4 2 NNE - 10
17.09.2018 21:00:00 24,0 22,0 8 4 NW - 10
17.09.2018 20:00:00 24,3 21,3 4 2 - 1020,1 10
17.09.2018 19:00:00 25,0 21,0 5 3 W - 10
17.09.2018 18:00:00 26,0 21,0 8 4 WSW - 10
17.09.2018 17:00:00 25,4 20,9 16 9 WSW 1019,7 10
17.09.2018 16:00:00 26,0 21,0 18 10 WSW - 10
17.09.2018 15:00:00 27,0 20,0 15 8 WSW - 10
17.09.2018 14:00:00 26,8 19,6 9 5 W 1021,1 10
17.09.2018 13:00:00 27,0 19,0 15 8 WSW - 10
17.09.2018 12:00:00 25,0 20,0 13 7 W - 10
17.09.2018 11:00:00 25,2 19,6 8 4 WNW 1021,7 10
17.09.2018 10:00:00 24,0 20,0 5 3 - - 10
17.09.2018 09:00:00 22,0 20,0 8 4 ENE - 10
17.09.2018 08:00:00 19,5 19,1 5 3 NE 1021,4 10
17.09.2018 07:00:00 18,0 18,0 4 2 NNE - 7
17.09.2018 06:00:00 19,0 19,0 2 1 - - 7
17.09.2018 05:00:00 18,9 18,3 5 3 E 1021,2 8
17.09.2018 04:00:00 19,0 19,0 8 4 ENE - 9
17.09.2018 03:00:00 20,0 19,0 5 3 ENE - 9
17.09.2018 02:00:00 19,5 18,5 5 3 ENE 1021,6 9
17.09.2018 01:00:00 20,0 19,0 5 3 - - 10
17.09.2018 00:00:00 21,0 20,0 0 0 N - 10
16.09.2018 23:00:00 21,1 19,0 5 3 - 1021,8 10
16.09.2018 22:00:00 22,0 20,0 5 3 - - 10
16.09.2018 21:00:00 23,0 21,0 4 2 - - 10
16.09.2018 20:00:00 23,4 20,6 5 3 W 1021,6 10
16.09.2018 19:00:00 24,0 20,0 11 6 WSW - 10
16.09.2018 18:00:00 26,0 21,0 16 9 SW - 10
16.09.2018 17:00:00 26,7 20,9 13 7 SSW 1020,9 10
16.09.2018 16:00:00 27,0 20,0 16 9 SW - 10
16.09.2018 15:00:00 27,0 21,0 16 9 SW - 10
16.09.2018 14:00:00 27,9 21,1 18 10 SSW 1021,8 10
16.09.2018 13:00:00 27,0 21,0 16 9 SSW - 10
16.09.2018 12:00:00 27,0 20,0 15 8 S - 10
16.09.2018 11:00:00 26,3 20,4 8 4 SE 1022,4 10
16.09.2018 10:00:00 24,0 20,0 9 5 ESE - 10
16.09.2018 09:00:00 22,0 20,0 9 5 E - 9
16.09.2018 08:00:00 20,0 19,1 8 4 E 1021,8 7
16.09.2018 07:00:00 19,0 18,0 4 2 E - 7
16.09.2018 06:00:00 19,0 18,0 5 3 NE - 10
16.09.2018 05:00:00 18,7 18,1 5 3 ENE 1020,9 10
16.09.2018 04:00:00 19,0 19,0 4 2 E - 10
16.09.2018 03:00:00 19,0 18,0 5 3 NNE - 10
16.09.2018 02:00:00 20,0 18,9 5 3 E - 10
16.09.2018 01:00:00 21,0 19,0 8 4 E - 10
16.09.2018 00:00:00 21,0 20,0 8 4 E - 10
15.09.2018 23:00:00 21,8 20,0 9 5 E 1021,2 10
15.09.2018 22:00:00 23,0 20,0 4 2 - - 10
15.09.2018 21:00:00 24,0 21,0 8 4 SW - 10
15.09.2018 20:00:00 24,1 20,3 13 7 SW 1020,3 10
15.09.2018 19:00:00 25,0 21,0 11 6 WSW - 10
15.09.2018 18:00:00 26,0 21,0 15 8 SW - 10
15.09.2018 17:00:00 26,1 20,5 16 9 SW 1019,4 10
15.09.2018 16:00:00 27,0 21,0 18 10 SW - 10
15.09.2018 15:00:00 27,0 21,0 18 10 WSW - 10
15.09.2018 14:00:00 26,8 19,5 18 10 SW 1019,9 10
15.09.2018 13:00:00 27,0 21,0 16 9 SW - 10
15.09.2018 12:00:00 27,0 21,0 11 6 SW - 10
15.09.2018 11:00:00 25,4 20,8 5 3 - 1019,8 10
15.09.2018 10:00:00 25,0 20,0 8 4 NE - 10
15.09.2018 09:00:00 22,0 19,0 8 4 ENE - 10
15.09.2018 08:00:00 19,9 17,9 4 2 - 1018,9 9
15.09.2018 07:00:00 18,0 17,0 8 4 ENE - 8
15.09.2018 06:00:00 18,0 17,0 5 3 ENE - 10
15.09.2018 05:00:00 18,6 17,9 5 3 ENE 1017,9 10
15.09.2018 04:00:00 19,0 18,0 5 3 ENE - 10
15.09.2018 03:00:00 19,0 18,0 4 2 NE - 10
15.09.2018 02:00:00 19,0 18,3 4 2 NNW 1017,9 10
15.09.2018 01:00:00 21,0 20,0 0 0 N - 10
15.09.2018 00:00:00 22,0 20,0 4 2 ENE - 10
14.09.2018 23:00:00 21,7 19,8 4 2 - 1017,7 10
14.09.2018 22:00:00 23,0 20,0 9 5 WNW - 10
14.09.2018 21:00:00 24,0 21,0 11 6 WNW - 10
14.09.2018 20:00:00 23,8 20,3 13 7 W 1016,7 10
14.09.2018 19:00:00 25,0 21,0 15 8 W - 10
14.09.2018 18:00:00 25,0 21,0 21 11 W - 10
14.09.2018 17:00:00 26,3 20,1 21 11 W 1015,6 10
14.09.2018 16:00:00 26,0 19,0 21 11 W - 10
14.09.2018 15:00:00 27,0 19,0 18 10 W - 10
14.09.2018 14:00:00 27,2 17,4 16 9 W - 10
14.09.2018 13:00:00 26,0 19,0 13 7 W - 10
14.09.2018 12:00:00 26,0 19,0 15 8 W - 10
14.09.2018 11:00:00 26,2 18,1 8 4 NW 1016,4 10
14.09.2018 10:00:00 24,0 19,0 8 4 NW - 10
14.09.2018 09:00:00 23,0 19,0 4 2 - - 10
14.09.2018 08:00:00 20,4 18,7 5 3 - 1015,4 10
14.09.2018 07:00:00 19,0 18,0 4 2 - - 10
14.09.2018 06:00:00 20,0 19,0 4 2 NNE - 10
14.09.2018 05:00:00 20,1 18,6 4 2 N 1015,0 10
14.09.2018 04:00:00 21,0 19,0 4 2 N - 10
14.09.2018 03:00:00 21,0 19,0 5 3 N - 10
14.09.2018 02:00:00 21,0 18,5 5 3 N 1015,0 10
14.09.2018 01:00:00 21,0 19,0 5 3 N - 10
14.09.2018 00:00:00 21,0 18,0 8 4 NW - 10
13.09.2018 23:00:00 21,9 18,4 5 3 NNE 1015,5 10
13.09.2018 22:00:00 22,0 18,0 4 2 - - 10
13.09.2018 21:00:00 23,0 18,0 16 9 WSW - 10
13.09.2018 20:00:00 23,6 19,3 15 8 W 1015,2 10
13.09.2018 19:00:00 24,0 20,0 16 9 W - 10
13.09.2018 18:00:00 25,0 22,0 21 11 W - 10
13.09.2018 17:00:00 25,0 21,9 15 8 W 1015,0 10
13.09.2018 16:00:00 26,0 20,0 8 4 - - 10
13.09.2018 15:00:00 27,0 17,0 4 2 NW - 10
13.09.2018 14:00:00 25,9 17,1 24 13 NE 1015,0 10
13.09.2018 13:00:00 24,0 19,0 13 7 NE - 10
13.09.2018 12:00:00 24,0 19,0 5 3 - - 10
13.09.2018 11:00:00 22,7 19,3 9 5 N 1016,5 10
13.09.2018 10:00:00 22,0 19,0 4 2 - - 10
13.09.2018 09:00:00 21,0 19,0 5 3 NNE - 10
13.09.2018 08:00:00 20,3 18,1 2 1 - 1015,8 10
13.09.2018 07:00:00 20,0 18,0 0 0 N - 10
13.09.2018 06:00:00 20,0 19,0 4 2 - - 10
13.09.2018 05:00:00 19,3 18,5 5 3 NE 1016,2 8
13.09.2018 04:00:00 19,0 18,0 4 2 N - 8
13.09.2018 03:00:00 19,0 19,0 8 4 N - 10
13.09.2018 02:00:00 20,1 19,3 4 2 - 1017,5 10
13.09.2018 01:00:00 20,0 19,0 5 3 NE - 10
13.09.2018 00:00:00 21,0 19,0 5 3 ENE - 10
12.09.2018 23:00:00 21,8 20,7 5 3 WNW 1018,8 10
12.09.2018 22:00:00 24,0 22,0 2 1 - - 10
12.09.2018 21:00:00 24,0 21,0 4 2 - - 10
12.09.2018 20:00:00 23,8 21,1 9 5 W 1019,2 10
12.09.2018 19:00:00 25,0 21,0 11 6 W - 10
12.09.2018 18:00:00 25,0 22,0 13 7 W - 10

tt = Température de l'air
td = dewpoint
ff = Vitesse du vent
dd = Direction du vent
ppp = reduced air pressure
vv = visibility

stations d'obs. à proximité